Ogden, UT

7:50 AM MDT on July 24, 2016 (GMT -0600)
Ogden-Hinckley

Weather History for KOGD - August, 2014

Change the Weather History Date:

Wednesday, August 6, 2014

  Actual Average Record
Temperature  
Mean Temperature 74 °F -  
Max Temperature 84 °F 92 °F 101 °F (1983)
Min Temperature 62 °F 60 °F 49 °F (1954)
Cooling Degree Days 8    
Growing Degree Days 24 (Base 50)    
Moisture  
Dew Point 52 °F    
Average Humidity 52    
Maximum Humidity 81    
Minimum Humidity 25    
Precipitation  
Precipitation 0.01 in - - ()
Sea Level Pressure  
Sea Level Pressure 29.96 in    
Wind  
Wind Speed 6 mph (West)    
Max Wind Speed 22 mph    
Max Gust Speed 37 mph    
Visibility 10 miles    
Events Rain , Thunderstorm    
Averages and records for this station are not official NWS values.
T = Trace of Precipitation, MM = Missing Value Source: NWS Daily Summary

Daily Weather History Graph

Daily Weather History Graph

Search for Another Location

Airport or City:

Trip Planner

Search our weather history database for the weather conditions in past years. The results will help you decide how hot, cold, wet, or windy it might be!

Date:

Astronomy

Aug. 06, 2014 Rise Set
Actual Time 6:28 AM MDT 8:38 PM MDT
Civil Twilight 5:58 AM MDT 9:09 PM MDT
Nautical Twilight 5:20 AM MDT 9:46 PM MDT
Astronomical Twilight 4:39 AM MDT 10:27 PM MDT
Moon 5:00 PM MDT (8/6) 2:06 AM MDT (8/6)
Length of Visible Light 15h 11m
Length of Day
14h 10m
Waxing Gibbous, 78% of the Moon is Illuminated
Aug 6
Waxing Gibbous
Aug 10
Full
Aug 17
Last Quarter
Aug 25
New
Sep 2
First Quarter

Hourly Weather History & Observations

Time (MDT) Temp. Heat Index Dew Point Humidity Pressure Visibility Wind Dir Wind Speed Gust Speed Precip Events Conditions
12:53 AM 66.0 °F - 54.0 °F 65% 29.93 in 10.0 mi Calm Calm - N/A   Clear
1:53 AM 64.0 °F - 54.0 °F 70% 29.94 in 10.0 mi SSE 8.1 mph - N/A   Clear
2:53 AM 64.0 °F - 57.0 °F 78% 29.95 in 10.0 mi Calm Calm - 0.01 in Rain Light Rain
3:53 AM 63.0 °F - 57.0 °F 81% 29.99 in 10.0 mi WSW 9.2 mph - 0.00 in   Scattered Clouds
4:53 AM 64.9 °F - 55.0 °F 70% 30.00 in 10.0 mi ENE 4.6 mph - N/A   Overcast
5:53 AM 63.0 °F - 55.0 °F 75% 29.96 in 10.0 mi South 8.1 mph - N/A   Partly Cloudy
6:53 AM 64.0 °F - 54.0 °F 70% 29.97 in 10.0 mi SSE 9.2 mph - 0.00 in Rain Light Rain
7:53 AM 66.9 °F - 55.0 °F 66% 29.98 in 10.0 mi South 4.6 mph - 0.00 in   Scattered Clouds
8:53 AM 69.1 °F - 54.0 °F 58% 29.99 in 10.0 mi Calm Calm - N/A   Clear
9:53 AM 72.0 °F - 54.0 °F 53% 29.99 in 10.0 mi East 3.5 mph - N/A   Clear
11:53 AM 80.1 °F 80.0 °F 54.0 °F 40% 29.98 in 10.0 mi SSE 10.4 mph - N/A   Clear
1:53 PM 82.0 °F - 48.9 °F 31% 29.96 in 10.0 mi West 10.4 mph 20.7 mph N/A   Clear
2:53 PM 82.9 °F - 48.9 °F 31% 29.95 in 10.0 mi West 11.5 mph - N/A   Clear
3:53 PM 82.9 °F - 48.9 °F 31% 29.94 in 10.0 mi NW 9.2 mph - N/A   Clear
4:53 PM 84.0 °F - 45.0 °F 25% 29.91 in 10.0 mi NW 9.2 mph - N/A   Clear
5:53 PM 84.0 °F - 45.0 °F 25% 29.89 in 10.0 mi NW 6.9 mph - N/A   Clear
6:53 PM 82.9 °F - 45.0 °F 26% 29.89 in 10.0 mi NW 10.4 mph - N/A   Clear
7:53 PM 79.0 °F - 46.9 °F 32% 29.89 in 10.0 mi North 9.2 mph - N/A   Clear
8:53 PM 78.1 °F - 48.0 °F 35% 29.89 in 10.0 mi NW 4.6 mph - N/A   Clear
9:53 PM 75.0 °F - 51.1 °F 43% 29.95 in 10.0 mi WSW 5.8 mph - N/A   Clear
10:53 PM 73.9 °F - 52.0 °F 46% 29.97 in 10.0 mi WSW 8.1 mph - N/A   Scattered Clouds
11:09 PM 64.0 °F - 55.0 °F 73% 30.16 in 8.0 mi WSW 21.9 mph 36.8 mph 0.00 in Rain , Thunderstorm Light Rain
11:53 PM 62.1 °F - 50.0 °F 65% 30.04 in 10.0 mi NE 11.5 mph 18.4 mph 0.00 in   Partly Cloudy